Yatton Keynell, United Kingdom

12:32 PM BST on April 19, 2019 (GMT +0100)
Yatton Keynell

Weather History for 03740 - August, 2000

Change the Weather History Date:

Tuesday, August 1, 2000

  Actual Average Record
Temperature  
Mean Temperature 64 °F -  
Max Temperature 69 °F 68 °F - ()
Min Temperature 59 °F 53 °F - ()
Degree Days  
Heating Degree Days 1    
Growing Degree Days 14 (Base 50)    
Moisture  
Dew Point 52 °F    
Average Humidity 69    
Maximum Humidity 94    
Minimum Humidity 46    
Precipitation  
Precipitation 0.00 in 0.08 in - ()
Sea Level Pressure  
Sea Level Pressure 30.04 in    
Wind  
Wind Speed 7 mph ()    
Max Wind Speed 14 mph    
Max Gust Speed -    
Visibility 6.1 miles    
Events      
T = Trace of Precipitation, MM = Missing Value Source: Averaged Metar Reports

Daily Weather History Graph

Daily Weather History Graph

Search for Another Location

Airport or City:

Astronomy

Aug. 01, 2000 Rise Set
Actual Time 5:31 AM BST 8:55 PM BST
Civil Twilight 4:51 AM BST 9:35 PM BST
Nautical Twilight 3:56 AM BST 10:29 PM BST
Astronomical Twilight 2:40 AM BST 11:44 PM BST
Moon 7:00 AM BST (8/1) 10:01 PM BST (8/1)
Length of Visible Light 16h 44m
Length of Day
15h 23m
Waxing Crescent, 3% of the Moon is Illuminated
Aug 1
Waxing Crescent
Aug 7
First Quarter
Aug 15
Full
Aug 22
Last Quarter
Aug 29
New

Hourly Weather History & Observations

Time (BST) Temp. Dew Point Humidity Pressure Visibility Wind Dir Wind Speed Gust Speed Precip Events Conditions
12:50 AM 59.0 °F 53.6 °F 82% 30.09 in - South 8.1 mph - N/A   Clear
1:50 AM 59.0 °F 53.6 °F 82% 30.09 in 6.2 mi SSW 6.9 mph - N/A   Scattered Clouds
2:50 AM 59.0 °F 55.4 °F 88% 30.06 in 4.3 mi SSW 4.6 mph - N/A   Light Drizzle
3:50 AM 59.0 °F 57.2 °F 94% 30.06 in 6.2 mi South 4.6 mph - N/A   Mostly Cloudy
4:50 AM 59.0 °F 57.2 °F 94% 30.06 in 6.2 mi SSW 5.8 mph - N/A   Mostly Cloudy
5:50 AM 59.0 °F 57.2 °F 94% 30.06 in 5.0 mi SSW 4.6 mph - N/A   Partly Cloudy
6:50 AM 59.0 °F 57.2 °F 94% 30.06 in 6.2 mi SW 6.9 mph - N/A   Partly Cloudy
7:50 AM 60.8 °F 59.0 °F 94% 30.06 in 6.2 mi SW 6.9 mph - N/A   Mostly Cloudy
8:50 AM 62.6 °F 55.4 °F 77% 30.06 in 6.2 mi WSW 9.2 mph - N/A   Mostly Cloudy
9:50 AM 64.4 °F 53.6 °F 68% 30.06 in 6.2 mi WSW 9.2 mph - N/A   Mostly Cloudy
10:50 AM 64.4 °F 51.8 °F 64% 30.06 in 6.2 mi WSW 8.1 mph - N/A   Mostly Cloudy
11:50 AM 66.2 °F 51.8 °F 60% 30.06 in 6.2 mi SW 9.2 mph - N/A   Mostly Cloudy
12:50 PM 66.2 °F 53.6 °F 64% 30.04 in 6.2 mi SW 8.1 mph - N/A   Mostly Cloudy
1:50 PM 68.0 °F 50.0 °F 52% 30.04 in 6.2 mi WSW 9.2 mph - N/A   Mostly Cloudy
2:50 PM 69.8 °F 48.2 °F 46% 30.04 in 6.2 mi WSW 12.7 mph - N/A   Mostly Cloudy
3:50 PM 69.8 °F 48.2 °F 46% 30.01 in 6.2 mi West 11.5 mph - N/A   Mostly Cloudy
4:50 PM 69.8 °F 48.2 °F 46% 30.01 in 6.2 mi West 13.8 mph - N/A   Mostly Cloudy
5:50 PM 68.0 °F 46.4 °F 46% 30.01 in 6.2 mi WSW 13.8 mph - N/A   Scattered Clouds
6:50 PM 66.2 °F 48.2 °F 52% 30.01 in 6.2 mi WSW 10.4 mph - N/A   Partly Cloudy
7:50 PM 66.2 °F 48.2 °F 52% 30.01 in 6.2 mi West 12.7 mph - N/A   Partly Cloudy
8:50 PM 60.8 °F 48.2 °F 63% 30.01 in 6.2 mi West 9.2 mph - N/A   Partly Cloudy
9:50 PM 60.8 °F 48.2 °F 63% 30.01 in 6.2 mi SW 3.5 mph - N/A   Partly Cloudy
10:50 PM 59.0 °F 48.2 °F 67% 30.01 in 6.2 mi SW 4.6 mph - N/A   Scattered Clouds
11:50 PM 59.0 °F 50.0 °F 72% 30.01 in 6.2 mi SSW 4.6 mph - N/A   Mostly Cloudy